Weather in Mojacar

Spain     37°08′26″N   1°50′52″W
temp.,
°C
wind,
m/s
gust,
m/s
humid.,
%
clouds,
%
prec.,
mm/h
press.,
hPa
HPBL,
m
20 january, wed
wed2001:00+10w118252 0.0 1021113
04:00+10sw12820 0.0 1018147
07:00+10wsw238029 0.0 1017216
10:00+12w2371100 0.0 1016244
13:00+14wnw1357100 0.0 1016194
16:00+15nne2255100 0.0 1014192
19:00+13sw346899 0.0 1014124
22:00+12sw7980100 0.0 1014269
21 january, thu
thu2101:00+12w348082 0.0 1016194
04:00+11wnw22780 0.0 101672
07:00+11w12770 0.0 101840
10:00+14wnw22653 0.0 101938
13:00+16sse22572 0.0 1019256
16:00+17nne235855 0.0 1017332
19:00+14sw127378 0.0 101824
22:00+14nnw236797 0.0 101824
22 january, fri
fri2201:00+13wnw117499 0.0 101723
04:00+12wsw2276100 0.0 101542
07:00+12wnw237253 0.0 101545
10:00+15sw336610 0.0 101563
13:00+19sw8105732 0.0 1013704
16:00+20w9114724 0.0 10121240
19:00+16wnw11204619 0.0 1014752
22:00+14w375333 0.0 1016177
23 january, sat
sat2301:00+14nw585667 0.0 1018270
04:00+13wsw685756 0.0 1018133
07:00+11nw455732 0.0 101898
10:00+12nw795165 0.0 1019377
13:00+15wsw244361 0.0 1019723
16:00+15sw235332 0.0 1017452
19:00+13wnw375766 0.0 1017170
22:00+12sw446063 0.0 1017101
24 january, sun
sun2401:00+12sw356082 0.0 1014133
04:00+12wsw2464100 0.0 101296
07:00+13ssw4569100 0.0 101146
10:00+15sw3370100 0.0 101464
13:00+19nw6952100 0.0 10151209
16:00+19wnw474963 0.0 1014637
19:00+16nnw575382 0.0 1016105
22:00+14nnw5658100 0.0 1018109